RH
15 18 24 29 32 34 37 35 33 30 37 53 55 52 26 25 25 26 27 29 28 29 31 30 29 28 22 20 19 18 17 16 14 13 13 16 13 14 15 16 18 40 56
14 15 22 23 28 31 31 32 32 33 32 53 66 68 33 28 27 28 29 30 31 31 31 32 32 32 29 24 21 21 21 19 19 20 31 28 13 16 22 25 31 37 43
14 13 17 20 22 26 24 24 28 29 38 39 72 53 43 30 30 31 31 31 32 31 33 33 33 33 35 33 26 23 22 20 24 33 41 42 23 20 19 20 28 36 46
14 12 13 16 16 20 23 23 22 26 44 49 55 70 66 32 34 35 35 35 35 35 34 34 35 34 34 36 36 32 26 24 26 31 38 27 30 32 28 26 25 27 27
14 15 13 14 14 13 18 21 22 22 32 49 49 64 38 34 36 38 38 37 37 36 36 36 36 37 35 34 34 35 36 35 30 29 40 28 31 33 32 31 35 36 39
18 16 17 16 15 14 15 18 20 22 22 24 27 30 32 34 36 38 38 40 39 38 38 37 39 39 38 35 34 36 34 38 43 43 37 46 52 43 51 50 48 45 49
19 18 18 18 16 14 13 17 17 20 22 23 24 25 25 25 30 35 40 40 39 38 38 37 38 43 41 39 36 37 34 34 38 48 60 59 62 54 55 56 60 66 64
17 18 19 19 17 14 13 16 18 19 24 25 25 23 19 14 13 13 16 20 20 20 27 29 32 43 40 37 40 41 38 29 28 27 25 31 44 51 54 52 61 63 55
15 16 18 19 18 15 13 14 18 19 23 26 29 28 27 25 21 18 14 11 9 8 9 15 26 30 33 42 49 46 31 22 17 15 13 21 37 62 57 53 54 54 50
14 14 16 18 18 16 14 13 17 21 22 29 32 33 35 35 32 25 22 22 22 16 12 9 14 16 17 16 21 27 27 24 21 20 24 33 40 47 63 68 63 59 54
14 13 13 15 17 17 15 14 14 20 26 31 31 36 40 41 42 43 42 41 29 23 26 17 11 10 10 10 11 13 18 20 24 31 44 61 50 62 70 57 58 66 64
14 14 12 12 14 16 15 15 14 17 28 33 32 37 39 41 44 47 48 48 43 39 25 29 29 22 11 11 18 21 24 27 39 58 62 64 65 70 58 60 55 55 58
16 15 12 11 11 13 15 15 16 16 20 29 33 31 31 33 34 40 44 48 49 45 39 27 27 28 33 23 15 23 30 34 39 36 57 57 81 92 42 31 52 52 54
18 14 12 12 11 12 13 14 15 15 17 21 24 27 25 21 22 32 39 42 47 48 42 35 28 27 31 34 34 26 18 20 20 22 27 34 36 30 19 15 13 14 14
17 13 12 12 11 11 13 14 14 14 17 20 21 19 19 19 30 47 48 46 44 47 41 35 30 28 29 32 33 32 33 37 36 32 32 35 30 22 16 15 15 14 13
16 12 12 12 11 11 14 21 19 14 14 17 20 17 18 28 46 60 61 50 46 47 38 34 32 31 31 32 29 30 31 29 30 36 33 31 23 20 21 15 13 14 13
20 13 11 10 10 12 25 30 20 15 15 17 18 18 19 44 48 55 61 56 48 47 38 35 35 33 33 34 34 31 28 26 26 24 22 23 20 20 19 17 15 14 13
28 20 12 11 12 24 27 28 23 18 17 18 19 19 24 42 48 50 58 53 56 49 37 32 31 30 29 29 27 25 22 22 22 22 21 18 18 19 18 16 16 16 15
31 34 32 18 20 24 29 29 25 19 17 18 21 25 28 46 50 52 64 55 58 56 45 35 27 25 25 25 23 23 23 22 21 21 21 20 19 18 17 17 18 18 18
37 34 30 22 25 32 37 42 29 21 18 20 25 30 45 52 52 57 68 59 60 61 52 40 36 32 26 23 23 22 22 21 21 21 21 22 21 22 20 19 20 21 21
56 48 41 40 41 41 49 51 36 22 21 26 38 52 54 57 57 68 71 60 54 55 53 50 47 42 34 30 28 27 28 27 26 25 26 26 25 24 25 26 27 28 30
53 65 66 61 50 41 37 34 31 26 25 43 58 58 59 69 76 76 69 67 53 50 51 51 48 44 41 37 34 32 32 32 29 31 33 34 35 36 37 38 34 33 34
39 62 65 56 52 46 39 35 31 29 33 52 59 60 68 70 74 78 66 64 62 54 52 53 54 50 45 42 39 39 39 41 39 40 42 44 40 37 39 44 44 44 43
47 50 66 62 56 50 45 42 41 40 43 50 52 60 70 71 71 68 69 61 63 58 55 53 56 63 61 56 52 49 49 49 47 47 46 46 49 53 56 54 53 50 44
75 75 68 90 77 73 65 58 53 52 53 50 56 63 68 67 64 65 65 61 58 63 65 63 58 60 72 81 79 70 60 56 53 55 68 70 60 63 60 54 50 47 36
90 76 72 89 92 94 95 90 83 76 70 60 67 75 74 70 69 70 74 68 58 62 68 71 71 69 71 73 76 73 68 66 68 75 78 80 70 65 62 41 22 12 17
Wind_Speed
16 15 15 14 15 16 17 17 18 16 12 12 14 14 13 11 9 9 8 8 8 7 7 8 6 5 4 4 3 4 4 4 3 5 4 4 4 4 2 4 3 4 5
19 16 16 15 15 16 18 18 17 17 15 12 15 16 14 12 9 8 8 8 8 8 7 7 7 6 6 5 4 2 2 3 3 4 5 4 4 4 3 3 3 2 2
22 19 17 16 16 17 18 19 17 17 17 14 13 16 16 12 10 9 9 9 9 9 7 7 7 7 6 6 6 5 4 3 3 5 4 5 3 3 4 4 4 3 2
22 21 18 18 18 17 18 19 18 17 15 15 15 15 17 13 10 9 10 12 10 9 9 7 6 7 6 5 6 6 5 5 2 2 0 1 1 2 2 3 4 4 4
23 22 20 20 20 20 18 18 18 16 15 14 16 13 15 12 11 12 11 13 12 11 11 10 8 6 6 6 6 7 6 6 5 3 4 2 1 1 3 4 5 5 6
25 23 23 22 22 23 21 20 19 17 16 14 15 16 15 13 13 13 13 13 14 13 12 12 10 8 8 8 9 7 8 7 6 6 5 5 4 3 3 3 3 5 6
25 23 24 24 22 22 22 21 22 20 17 15 16 16 17 16 14 14 14 14 15 14 13 13 13 11 9 9 10 9 9 9 7 6 6 6 7 4 4 5 4 2 1
27 25 26 25 24 24 22 22 23 21 18 15 15 15 16 17 16 15 14 13 14 14 13 13 14 13 12 10 10 10 10 9 8 8 4 7 7 6 6 6 6 5 5
30 28 27 27 27 26 24 22 23 22 19 16 15 15 15 17 18 18 18 16 15 14 13 13 13 13 13 11 9 10 10 10 10 10 7 8 9 9 10 10 10 11 10
33 33 31 29 30 29 26 24 23 22 20 18 17 16 16 17 20 20 20 20 19 19 17 14 13 13 12 11 10 10 10 11 12 14 13 12 15 14 13 14 14 15 16
36 35 34 33 33 31 29 26 23 23 22 20 20 18 18 18 19 22 23 24 23 22 22 20 18 18 18 17 16 15 14 16 19 19 18 17 17 17 15 17 17 16 16
36 35 35 35 36 33 32 29 24 24 23 22 22 20 20 19 19 22 25 26 26 25 24 24 23 24 24 23 22 21 20 20 21 21 21 19 20 20 19 18 19 18 19
36 36 36 36 37 35 33 33 28 25 26 25 25 25 24 23 22 24 25 28 28 27 26 28 27 26 27 29 27 27 27 27 25 22 23 22 23 19 21 21 20 21 20
38 36 37 37 38 37 36 33 32 27 27 27 28 29 28 29 27 27 29 30 29 27 26 27 28 28 28 28 27 31 31 32 31 28 26 25 25 25 24 22 21 22 23
38 36 37 38 38 37 36 36 34 30 29 29 32 31 30 30 31 30 33 33 29 28 27 26 28 29 29 28 26 27 26 29 30 29 26 27 28 27 24 22 23 25 26
36 36 37 38 37 36 35 37 36 34 30 30 31 32 31 29 33 36 36 34 29 28 27 25 26 28 29 28 26 27 28 30 30 30 31 29 26 24 23 26 28 28 29
36 36 36 36 36 34 35 35 35 35 32 31 33 33 32 31 34 37 38 33 29 26 27 26 27 28 28 28 29 30 30 31 31 33 31 28 26 25 26 28 30 31 33
34 32 32 34 32 32 34 34 35 36 34 32 33 34 32 33 34 36 37 34 27 27 28 27 28 29 28 28 29 30 31 31 32 30 29 29 29 30 30 31 33 33 35
34 32 29 30 32 34 34 35 38 39 35 33 32 34 34 34 35 37 34 32 29 28 29 27 27 27 28 29 28 29 29 30 31 30 30 32 33 34 34 35 36 36 37
34 31 29 30 33 35 35 39 42 42 37 32 32 34 35 36 36 35 33 31 29 30 30 29 27 27 28 28 28 30 30 32 32 32 33 35 36 37 38 38 38 39 40
30 31 29 30 34 37 39 42 44 43 39 34 33 34 36 38 37 35 32 29 29 29 31 32 31 29 30 29 31 32 33 34 35 36 37 38 39 41 43 41 41 43 45
27 32 33 33 35 38 41 43 44 43 40 36 36 38 37 38 38 35 32 31 31 30 31 32 31 30 31 30 32 33 34 36 38 38 39 40 42 42 42 43 44 46 48
38 27 31 33 36 40 43 44 45 44 41 40 41 41 38 39 41 38 35 33 33 34 33 33 33 32 33 33 34 35 36 38 39 40 41 42 44 45 45 46 48 49 51
38 38 30 34 36 39 41 43 45 45 44 44 45 44 42 42 43 42 41 37 35 38 38 38 37 36 37 37 39 38 39 41 41 41 42 44 45 44 46 50 51 52 53
36 38 32 35 39 40 41 43 44 45 45 49 49 48 48 48 47 46 45 45 44 40 40 41 42 43 42 42 42 42 42 44 45 45 47 48 50 47 47 47 47 48 49
39 39 40 35 40 44 44 44 44 48 48 48 51 52 52 52 52 51 50 50 51 51 48 45 44 46 47 46 47 45 44 46 47 49 52 49 48 47 44 40 38 39 45
Wind_Direction
333 337 332 329 320 316 312 309 308 309 308 295 310 321 319 321 319 319 318 320 317 321 332 331 331 334 329 350 13 31 31 34 30 36 32 25 5 343 354 47 47 55 46
326 331 326 326 322 314 310 309 307 303 304 291 307 314 323 321 315 310 310 311 310 316 322 327 332 341 332 333 333 14 19 16 30 41 44 42 55 37 16 63 75 77 37
321 325 321 319 317 315 314 314 311 309 308 308 302 313 324 318 314 314 310 307 309 310 315 316 319 324 342 339 332 323 328 348 7 46 32 357 359 39 42 47 44 25 15
314 314 312 311 313 313 315 313 313 309 309 296 305 306 313 311 311 312 310 304 305 302 301 301 300 306 316 326 325 316 308 302 321 44 84 171 327 347 4 20 9 5 354
306 309 311 308 308 309 308 306 308 307 300 301 299 300 300 301 307 309 307 303 302 302 297 292 292 290 294 296 300 310 306 301 300 293 286 215 331 325 355 345 335 333 341
301 306 308 304 304 306 305 304 305 306 307 301 299 297 298 300 301 300 299 299 297 295 294 289 286 281 284 287 282 289 295 284 281 279 270 289 273 266 284 304 307 318 347
298 302 302 302 304 303 303 302 304 310 309 304 298 299 303 309 309 304 300 295 293 294 290 284 282 277 267 270 274 279 283 280 274 255 259 268 272 270 293 292 295 301 28
295 298 300 299 302 302 302 302 303 307 309 306 301 303 308 310 312 310 306 300 299 297 287 282 279 274 268 261 262 268 272 273 266 266 265 269 265 278 281 277 278 281 293
298 297 297 297 298 299 301 300 299 302 305 306 305 306 311 313 309 307 305 301 301 298 293 286 278 272 268 264 259 264 270 269 264 264 253 263 274 278 280 280 282 285 289
295 296 296 296 296 297 299 298 296 298 302 303 303 306 308 305 305 306 303 303 297 289 285 282 275 269 264 261 257 258 264 273 272 268 267 270 275 273 283 277 278 279 285
292 294 295 294 294 295 296 297 295 295 298 299 301 304 302 304 306 304 301 297 292 288 283 274 269 263 262 259 258 257 261 269 269 274 274 274 273 276 278 282 280 280 283
289 292 292 291 290 291 293 295 295 295 293 295 297 293 295 299 303 303 301 296 290 286 280 274 272 266 263 262 260 260 259 259 266 272 278 276 275 276 277 280 280 278 282
288 289 289 290 288 288 290 293 293 292 291 291 290 292 292 292 295 299 303 299 289 283 278 274 272 272 269 263 262 263 265 267 266 269 268 272 274 277 282 280 277 277 277
287 288 286 286 286 285 288 290 288 288 287 285 287 289 291 293 291 294 303 305 294 283 276 271 271 272 273 272 266 264 267 271 272 267 266 268 270 272 274 273 272 272 273
285 285 284 284 284 284 288 288 289 288 282 283 285 287 289 291 292 297 302 302 292 282 273 267 265 268 272 273 270 267 270 270 270 268 263 263 264 269 271 274 272 271 270
283 282 282 282 282 283 285 289 292 287 286 281 281 282 286 286 295 300 300 298 289 281 276 272 267 268 268 268 270 269 266 266 268 267 263 265 272 270 268 270 273 274 277
284 280 279 277 277 281 286 291 288 286 284 281 282 280 282 285 294 296 298 294 287 282 277 274 272 270 268 268 268 268 269 268 267 267 272 271 265 262 263 268 273 276 277
282 278 273 272 276 279 281 283 282 280 279 280 280 280 278 286 291 296 295 290 284 278 277 275 274 272 271 269 268 271 271 271 270 271 270 272 273 272 267 269 275 275 275
279 275 269 269 271 273 275 278 277 276 278 276 276 278 278 282 290 298 293 286 283 274 273 273 274 276 275 272 271 271 271 271 272 273 273 272 271 272 275 275 275 274 275
274 273 273 270 270 272 275 279 275 274 274 273 274 275 277 281 289 294 290 283 279 274 272 270 271 274 274 274 273 272 273 273 274 273 273 273 273 273 273 275 274 275 274
270 273 269 264 265 268 272 272 272 273 273 273 274 274 278 283 288 288 286 276 272 272 270 269 268 270 270 272 273 275 275 275 275 274 275 275 274 275 275 274 274 276 276
270 269 267 260 257 258 261 264 267 269 270 273 272 273 277 284 287 285 281 277 270 269 270 270 268 269 269 272 273 273 273 274 275 275 275 274 274 275 275 275 274 275 276
281 268 266 263 256 256 260 264 265 264 266 269 272 275 280 283 286 286 280 278 273 273 275 274 272 272 272 271 271 271 272 273 276 276 276 276 277 277 277 277 278 277 277
283 285 269 265 263 262 264 266 266 268 270 271 274 276 279 282 282 284 283 279 275 273 275 277 276 275 274 276 275 276 276 275 275 275 275 276 276 277 278 277 278 277 275
282 283 282 269 269 267 265 266 271 270 269 272 274 277 281 282 281 281 282 282 280 274 273 274 275 277 280 281 281 281 280 278 279 280 279 278 278 278 277 279 281 284 287
273 274 276 269 265 266 273 275 275 273 270 271 273 274 276 278 278 278 277 275 277 278 275 274 275 278 280 280 282 282 280 280 281 282 285 286 283 279 282 284 288 288 291